Regional Weather Roundup
Issued by NWS

Home | Current Version | Previous Version | Graphics & Text | Print | Product List | Glossary On
Versions: 1 2 3 4 5 6 7 8 9 10 11 12 13 14 15 16 17 18 19 20 21 22 23 24 25 26 27 28 29 30 31 32 33 34 35 36 37 38 39 40 41 42 43 44 45 46 47 48 49 50
000
ASUS45 KBOI 231410
RWRID
WEATHER ROUNDUP FOR IDAHO
NATIONAL WEATHER SERVICE BOISE ID
800 AM MDT WED JUL 23 2014

NOTE: "FAIR" INDICATES FEW OR NO CLOUDS BELOW 12000 FEET
WITH NO SIGNIFICANT WEATHER AND/OR OBSTRUCTIONS TO VISIBILITY

IDZ012-014-231500-
SOUTHWEST IDAHO


CITY           SKY/WX    TMP DP  RH WIND       PRES   REMARKS
BOISE          MOSUNNY   66  58  75 CALM      30.06S
CALDWELL       MOSUNNY   64  54  68 CALM      30.07S
$$

IDZ016-017-231500-
SOUTHCENTRAL IDAHO


CITY           SKY/WX    TMP DP  RH WIND       PRES   REMARKS
BURLEY         MOSUNNY   68  48  48 S7        30.14R
JEROME         MOSUNNY   64  51  62 SE7       30.14R
TWIN FALLS     MOSUNNY   69  46  43 S8        30.14R
$$

IDZ019>023-231500-
SOUTHEAST IDAHO


CITY           SKY/WX    TMP DP  RH WIND       PRES   REMARKS
IDAHO FALLS    MOSUNNY   69  47  45 S15       30.18R
POCATELLO      SUNNY     70  47  43 SW8       30.18R
REXBURG        MOSUNNY   65  43  44 S13       30.19R
$$

IDZ006-010-011-018-031-032-231500-
CENTRAL IDAHO MOUNTAINS


CITY           SKY/WX    TMP DP  RH WIND       PRES   REMARKS
MCCALL         SUNNY     58  52  80 CALM      30.16F
HAILEY         MOSUNNY   61  45  55 W7        30.21R
STANLEY          N/A     50  48  93 CALM      30.32S
SALMON         SUNNY     63  52  67 E6        30.21F
CHALLIS        SUNNY     62  48  60 CALM      30.25R
$$

IDZ002-004-006-007-026-231500-
NORTHERN IDAHO


CITY           SKY/WX    TMP DP  RH WIND       PRES   REMARKS
LEWISTON       SUNNY     68  59  73 E5        29.97F
LOWELL           N/A     64  58  80 N3        30.04F
COEUR D`ALENE  MOSUNNY   61  55  82 E14       30.03F
MULLAN PASS    MOSUNNY   52  46  80 SE10G20   30.19F
$$



USA.gov is the U.S. government's official web portal to all federal, state and local government web resources and services.